Weather History for KSLB - December, 2011

Change the Weather History Date:

Sunday, December 25, 2011

  Actual Average Record
Temperature  
Mean Temperature 31 °F -  
Max Temperature 41 °F 27 °F 41 °F (1999)
Min Temperature 21 °F 11 °F -11 °F (1996)
Degree Days  
Heating Degree Days 34    
Moisture  
Dew Point 19 °F    
Average Humidity 65    
Maximum Humidity 82    
Minimum Humidity 43    
Precipitation  
Precipitation 0.00 in - - ()
Sea Level Pressure  
Sea Level Pressure 30.29 in    
Wind  
Wind Speed 14 mph (WNW)    
Max Wind Speed 17 mph    
Max Gust Speed 20 mph    
Visibility 10 miles    
Events      
Averages and records for this station are not official NWS values.
T = Trace of Precipitation, MM = Missing Value Source: NWS Daily Summary

Daily Weather History Graph

Daily Weather History Graph

Search for Another Location

Airport or City:

Trip Planner

Search our weather history database for the weather conditions in past years. The results will help you decide how hot, cold, wet, or windy it might be!

Date:

Astronomy

Dec. 25, 2011 Rise Set
Actual Time 7:49 AM CST 4:52 PM CST
Civil Twilight 7:17 AM CST 5:24 PM CST
Nautical Twilight 6:41 AM CST 6:00 PM CST
Astronomical Twilight 6:07 AM CST 6:34 PM CST
Moon 8:27 AM CST (12/25) 6:15 PM CST (12/25)
Length of Visible Light 10h 07m
Length of Day
9h 03m
New Moon, 1% of the Moon is Illuminated
Dec 25
New Moon
Jan 1
First Quarter
Jan 9
Full
Jan 16
Last Quarter
Jan 23
New

Hourly Weather History & Observations

Time (CST) Temp. Windchill Dew Point Humidity Pressure Visibility Wind Dir Wind Speed Gust Speed Precip Events Conditions
12:15 AM 28.8 °F 17.0 °F 18.5 °F 66% 30.19 in 10.0 mi West 16.1 mph - N/A   Clear
12:35 AM 29.1 °F 17.5 °F 18.5 °F 65% 30.19 in 10.0 mi West 16.1 mph - N/A   Clear
12:55 AM 30.2 °F 19.3 °F 18.3 °F 61% 30.18 in 10.0 mi West 15.0 mph - N/A   Clear
1:15 AM 29.7 °F 17.8 °F 18.1 °F 62% 30.19 in 10.0 mi West 17.3 mph - N/A   Clear
1:35 AM 29.3 °F 17.7 °F 18.1 °F 63% 30.19 in 10.0 mi West 16.1 mph - N/A   Clear
1:55 AM 28.9 °F 17.7 °F 18.1 °F 64% 30.19 in 10.0 mi West 15.0 mph - N/A   Clear
2:15 AM 28.0 °F 16.5 °F 18.1 °F 66% 30.20 in 10.0 mi West 15.0 mph - N/A   Clear
2:35 AM 27.7 °F 15.6 °F 18.1 °F 67% 30.20 in 10.0 mi West 16.1 mph - N/A   Clear
2:55 AM 27.1 °F 15.4 °F 18.1 °F 69% 30.21 in 10.0 mi West 15.0 mph - N/A   Clear
3:15 AM 26.4 °F 14.5 °F 18.0 °F 70% 30.21 in 10.0 mi West 15.0 mph - N/A   Clear
3:35 AM 25.7 °F 13.5 °F 17.6 °F 71% 30.20 in 10.0 mi West 15.0 mph - N/A   Clear
3:55 AM 26.1 °F 14.0 °F 17.6 °F 70% 30.21 in 10.0 mi West 15.0 mph - N/A   Clear
4:15 AM 26.2 °F 13.8 °F 17.6 °F 70% 30.21 in 10.0 mi West 16.1 mph - N/A   Clear
4:35 AM 26.1 °F 14.5 °F 17.6 °F 70% 30.21 in 10.0 mi West 13.8 mph - N/A   Clear
4:55 AM 25.9 °F 14.3 °F 17.6 °F 71% 30.22 in 10.0 mi West 13.8 mph - N/A   Clear
5:15 AM 24.8 °F 12.9 °F 17.6 °F 74% 30.23 in 10.0 mi West 13.8 mph - N/A   Clear
5:35 AM 23.9 °F 12.3 °F 17.2 °F 76% 30.23 in 10.0 mi West 12.7 mph - N/A   Clear
5:55 AM 22.5 °F 11.1 °F 16.7 °F 79% 30.24 in 10.0 mi West 11.5 mph - N/A   Clear
6:15 AM 21.6 °F 8.8 °F 16.7 °F 82% 30.25 in 10.0 mi West 13.8 mph - N/A   Clear
6:35 AM 21.2 °F 8.3 °F 16.5 °F 82% 30.27 in 10.0 mi West 13.8 mph - N/A   Clear
6:55 AM 22.1 °F 9.5 °F 17.4 °F 82% 30.28 in 10.0 mi West 13.8 mph - N/A   Clear
7:15 AM 22.8 °F 10.9 °F 17.6 °F 80% 30.29 in 10.0 mi West 12.7 mph - N/A   Clear
7:35 AM 23.4 °F 10.6 °F 18.1 °F 80% 30.30 in 10.0 mi West 15.0 mph - N/A   Clear
7:55 AM 23.4 °F 11.1 °F 18.3 °F 81% 30.30 in 10.0 mi West 13.8 mph - N/A   Clear
8:15 AM 22.8 °F 12.2 °F 18.1 °F 82% 30.31 in 10.0 mi WNW 10.4 mph - N/A   Clear
8:35 AM 24.3 °F 13.3 °F 18.9 °F 80% 30.31 in 10.0 mi WNW 11.5 mph - N/A   Clear
8:55 AM 24.8 °F 14.6 °F 19.2 °F 79% 30.33 in 10.0 mi WNW 10.4 mph - N/A   Clear
9:15 AM 26.6 °F 15.7 °F 20.5 °F 78% 30.33 in 10.0 mi WNW 12.7 mph - N/A   Clear
9:35 AM 28.6 °F 17.7 °F 21.2 °F 74% 30.34 in 10.0 mi WNW 13.8 mph - N/A   Clear
9:55 AM 30.4 °F 20.5 °F 21.7 °F 70% 30.35 in 10.0 mi NW 12.7 mph 16.1 mph N/A   Clear
10:15 AM 31.8 °F 23.3 °F 22.5 °F 68% 30.36 in 10.0 mi NW 10.4 mph 16.1 mph N/A   Clear
10:35 AM 33.3 °F 24.1 °F 23.0 °F 66% 30.36 in 10.0 mi NW 12.7 mph - N/A   Clear
10:55 AM 34.3 °F 25.5 °F 23.2 °F 64% 30.36 in 10.0 mi NW 12.7 mph - N/A   Clear
11:15 AM 35.2 °F 25.8 °F 23.7 °F 63% 30.36 in 10.0 mi NW 15.0 mph - N/A   Clear
11:35 AM 36.7 °F 28.0 °F 23.9 °F 60% 30.35 in 10.0 mi NW 13.8 mph 17.3 mph N/A   Clear
11:55 AM 38.1 °F 30.2 °F 24.4 °F 58% 30.34 in 10.0 mi NW 12.7 mph - N/A   Clear
12:15 PM 38.8 °F 31.2 °F 23.9 °F 55% 30.34 in 10.0 mi NW 12.7 mph 16.1 mph N/A   Clear
12:35 PM 39.7 °F 32.7 °F 23.7 °F 53% 30.34 in 10.0 mi NW 11.5 mph 17.3 mph N/A   Clear
12:55 PM 40.5 °F 32.1 °F 22.8 °F 49% 30.33 in 10.0 mi NW 16.1 mph - N/A   Clear
1:15 PM 40.8 °F 33.7 °F 21.9 °F 47% 30.33 in 10.0 mi NW 12.7 mph 19.6 mph N/A   Clear
1:35 PM 41.4 °F 34.3 °F 21.2 °F 45% 30.33 in 10.0 mi NW 12.7 mph 17.3 mph N/A   Clear
1:55 PM 41.7 °F 34.8 °F 20.8 °F 43% 30.33 in 10.0 mi NW 12.7 mph 17.3 mph N/A   Clear
2:15 PM 41.5 °F 34.2 °F 20.3 °F 43% 30.33 in 10.0 mi WNW 13.8 mph - N/A   Clear
2:35 PM 41.4 °F 33.6 °F 20.3 °F 43% 30.33 in 10.0 mi WNW 15.0 mph - N/A   Clear
2:55 PM 41.0 °F 33.5 °F 20.3 °F 44% 30.33 in 10.0 mi WNW 13.8 mph - N/A   Clear
3:15 PM 40.8 °F 34.5 °F 20.7 °F 45% 30.33 in 10.0 mi WNW 10.4 mph - N/A   Clear
3:35 PM 40.5 °F 33.2 °F 20.5 °F 45% 30.33 in 10.0 mi West 12.7 mph - N/A   Clear
3:55 PM 39.7 °F 32.3 °F 20.3 °F 46% 30.34 in 10.0 mi WNW 12.7 mph - N/A   Clear
4:15 PM 38.5 °F 32.7 °F 19.8 °F 47% 30.33 in 10.0 mi WNW 8.1 mph - N/A   Clear
4:35 PM 36.3 °F 30.1 °F 20.1 °F 52% 30.34 in 10.0 mi West 8.1 mph - N/A   Clear
5:15 PM 30.0 °F 21.1 °F 18.5 °F 62% 30.34 in 10.0 mi West 10.4 mph - N/A   Clear
5:55 PM 28.8 °F 19.5 °F 18.7 °F 66% 30.34 in 10.0 mi West 10.4 mph - N/A   Clear
6:15 PM 28.0 °F 20.0 °F 18.3 °F 67% 30.33 in 10.0 mi West 8.1 mph - N/A   Clear
6:35 PM 27.7 °F 20.4 °F 18.3 °F 68% 30.33 in 10.0 mi West 6.9 mph - N/A   Clear
6:55 PM 27.0 °F 18.7 °F 18.0 °F 69% 30.33 in 10.0 mi West 8.1 mph - N/A   Clear
7:15 PM 26.2 °F 18.6 °F 17.8 °F 70% 30.32 in 10.0 mi WSW 6.9 mph - N/A   Clear
7:35 PM 25.5 °F 18.7 °F 17.4 °F 71% 30.31 in 10.0 mi WSW 5.8 mph - N/A   Clear
7:55 PM 24.1 °F 15.2 °F 16.9 °F 74% 30.32 in 10.0 mi SW 8.1 mph - N/A   Clear
8:35 PM 24.8 °F 16.1 °F 17.6 °F 74% 30.30 in 10.0 mi WSW 8.1 mph - N/A   Clear
8:55 PM 25.2 °F 17.3 °F 17.8 °F 74% 30.30 in 10.0 mi WSW 6.9 mph - N/A   Clear
9:15 PM 27.0 °F 20.5 °F 18.5 °F 70% 30.28 in 10.0 mi WSW 5.8 mph - N/A   Clear
9:35 PM 26.6 °F 18.2 °F 18.3 °F 71% 30.28 in 10.0 mi SW 8.1 mph - N/A   Clear
9:55 PM 23.9 °F 14.2 °F 17.6 °F 77% 30.27 in 10.0 mi SW 9.2 mph - N/A   Clear
10:15 PM 24.1 °F 15.2 °F 17.8 °F 77% 30.27 in 10.0 mi SW 8.1 mph - N/A   Clear
10:35 PM 24.8 °F 16.9 °F 17.8 °F 75% 30.26 in 10.0 mi SSW 6.9 mph - N/A   Clear
10:55 PM 23.2 °F 15.0 °F 17.2 °F 78% 30.26 in 10.0 mi SSW 6.9 mph - N/A   Clear
11:15 PM 22.3 °F 12.2 °F 16.9 °F 80% 30.24 in 10.0 mi SSW 9.2 mph - N/A   Clear
11:35 PM 23.9 °F 14.2 °F 17.8 °F 77% 30.24 in 10.0 mi SSW 9.2 mph - N/A   Clear
11:55 PM 24.4 °F 15.6 °F 17.8 °F 76% 30.22 in 10.0 mi South 8.1 mph - N/A   Clear